Location: Gad�tanya
(48.0500°N, 20.8500°E)
Time: 11:55:22
(UTC+00:00)

Cosmos 2278 Rocket - Pass Details

Date: 05 July 2020
Orbit: 841 x 845 km, 71.0° (Epoch: 14 August)

Event Time Altitude Azimuth Distance (km) Brightness Sun altitude
Rises 19:17:28 0° 337° (NNW) 3,417 6.8 -5.8°
Reaches altitude 10° 19:20:26 10° 351° (N) 2,478 5.6 -6.2°
Maximum altitude 19:24:57 24° 44° (NE) 1,704 3.8 -6.7°
Drops below altitude 10° 19:29:27 10° 97° (E) 2,466 4.2 -7.2°
Enters shadow 19:31:04 - 106° (ESE) 2,965 4.5 -7.4°
